Des Moines, IA

8:45 AM CDT on October 23, 2019 (GMT -0500)
Des Moines International

Weather History for KDSM - September, 2019

Change the Weather History Date:

Sunday, September 22, 2019

  Actual Average Record
Temperature  
Mean Temperature 63 °F 63 °F  
Max Temperature 70 °F 74 °F 98 °F (1937)
Min Temperature 56 °F 52 °F 31 °F (1995)
Degree Days  
Heating Degree Days 2 4  
Month to date heating degree days 2 47  
Since 1 July heating degree days 4 53  
Cooling Degree Days 0 2  
Month to date cooling degree days 188 98  
Year to date cooling degree days 1126 1037  
Growing Degree Days 14 (Base 50)    
Moisture  
Dew Point 62 °F    
Average Humidity 89    
Maximum Humidity 100    
Minimum Humidity 78    
Precipitation  
Precipitation 0.91 in 0.09 in 1.77 in (1961)
Month to date precipitation 4.46 2.32  
Year to date precipitation 38.88 29.04  
Snow  
Snow 0.00 in 0.00 in - ()
Month to date snowfall 0.0 0.0  
Since 1 July snowfall 0.0 0.0  
Since 1 September snowfall 0.0 0.0  
Snow Depth 0.00 in    
Sea Level Pressure  
Sea Level Pressure 29.87 in    
Wind  
Wind Speed 7 mph (WSW)    
Max Wind Speed 22 mph    
Max Gust Speed 33 mph    
Visibility 8 miles    
Events Rain , Thunderstorm    
T = Trace of Precipitation, MM = Missing Value Source: NWS Daily Summary

Daily Weather History Graph

Daily Weather History Graph

Search for Another Location

Airport or City:

Astronomy

Sep. 22, 2019 Rise Set
Actual Time 7:01 AM CDT 7:12 PM CDT
Civil Twilight 6:34 AM CDT 7:39 PM CDT
Nautical Twilight 6:01 AM CDT 8:12 PM CDT
Astronomical Twilight 5:28 AM CDT 8:45 PM CDT
Moon No Moon Rise 3:13 PM CDT (9/22)
Length of Visible Light 13h 05m
Length of Day
12h 10m
Last Quarter, 44% of the Moon is Illuminated
Sep 22
Last Quarter
Sep 28
New
Oct 5
First Quarter
Oct 13
Full
Oct 21
Last Quarter

Hourly Weather History & Observations

Time (CDT) Temp. Dew Point Humidity Pressure Visibility Wind Dir Wind Speed Gust Speed Precip Events Conditions
12:37 AM 71.1 °F 68.0 °F 90% 29.90 in 2.0 mi West 36.8 mph 55.2 mph 0.00 in Rain , Thunderstorm Heavy Thunderstorms and Rain
12:59 AM 66.0 °F 62.1 °F 87% 29.85 in 4.0 mi NNW 11.5 mph 24.2 mph 0.02 in Rain , Thunderstorm Light Thunderstorms and Rain
1:18 AM 66.0 °F 62.1 °F 87% 29.85 in 8.0 mi WNW 9.2 mph - 0.03 in Rain , Thunderstorm Light Thunderstorms and Rain
1:40 AM 64.9 °F 62.1 °F 90% 29.86 in 5.0 mi Calm Calm - 0.06 in Rain Rain
1:54 AM 66.0 °F 63.0 °F 90% 29.82 in 5.0 mi Calm Calm - 0.10 in Rain Rain
2:54 AM 64.9 °F 64.0 °F 97% 29.88 in 5.0 mi SSW 6.9 mph - 0.14 in Rain Rain
3:54 AM 64.9 °F 63.0 °F 93% 29.87 in 5.0 mi SSW 5.8 mph - 0.16 in Rain Rain
4:54 AM 64.9 °F 63.0 °F 93% 29.86 in 5.0 mi South 6.9 mph - 0.23 in Rain Light Rain
5:02 AM 64.9 °F 63.0 °F 93% 29.88 in 7.0 mi South 8.1 mph - 0.02 in Rain Light Rain
5:54 AM 64.0 °F 63.0 °F 96% 29.83 in 10.0 mi SE 11.5 mph - 0.08 in   Overcast
6:20 AM 64.0 °F 63.0 °F 96% 29.87 in 10.0 mi SSW 10.4 mph - N/A   Overcast
6:54 AM 64.9 °F 63.0 °F 93% 29.87 in 10.0 mi SW 10.4 mph - 0.00 in Rain Light Rain
7:49 AM 64.4 °F 62.6 °F 94% 29.85 in 10.0 mi South 5.8 mph - 0.01 in Rain Light Rain
7:54 AM 64.0 °F 63.0 °F 96% 29.84 in 10.0 mi South 6.9 mph - 0.01 in Rain Light Rain
8:29 AM 64.0 °F 63.0 °F 96% 29.88 in 10.0 mi SSW 8.1 mph - 0.00 in Rain Light Rain
8:54 AM 64.0 °F 63.0 °F 96% 29.86 in 5.0 mi South 9.2 mph - 0.02 in Rain Light Rain
9:17 AM 64.0 °F 63.0 °F 96% 29.88 in 10.0 mi SSW 6.9 mph - 0.01 in   Overcast
9:54 AM 64.9 °F 63.0 °F 93% 29.86 in 9.0 mi SSW 3.5 mph - 0.01 in Rain Light Rain
10:51 AM 64.4 °F 62.6 °F 94% 29.91 in 2.5 mi West 10.4 mph - 0.07 in Rain Light Rain
10:54 AM 64.9 °F 63.0 °F 93% 29.89 in 3.0 mi WSW 10.4 mph - 0.08 in Rain Rain
11:11 AM 64.9 °F 63.0 °F 93% 29.88 in 3.0 mi WSW 3.5 mph - 0.04 in Rain Light Rain
11:26 AM 64.9 °F 63.0 °F 93% 29.84 in 4.0 mi ESE 8.1 mph - 0.06 in Rain Rain
11:54 AM 66.0 °F 64.0 °F 93% 29.84 in 10.0 mi South 4.6 mph - 0.09 in Rain Light Rain
12:54 PM 66.9 °F 63.0 °F 87% 29.83 in 10.0 mi SSW 3.5 mph - 0.00 in   Overcast
1:41 PM 68.0 °F 63.0 °F 84% 29.84 in 10.0 mi SSW 5.8 mph - N/A   Overcast
1:54 PM 68.0 °F 63.0 °F 84% 29.84 in 10.0 mi WSW 6.9 mph - N/A   Overcast
2:54 PM 68.0 °F 64.0 °F 87% 29.84 in 9.0 mi WNW 8.1 mph - 0.00 in   Light Drizzle
3:01 PM 66.9 °F 64.9 °F 93% 29.85 in 3.0 mi West 9.2 mph - 0.00 in Rain Light Rain
3:16 PM 66.9 °F 64.0 °F 90% 29.85 in 7.0 mi West 13.8 mph - 0.01 in   Overcast
3:54 PM 69.1 °F 63.0 °F 81% 29.82 in 10.0 mi WNW 11.5 mph - 0.01 in   Overcast
4:23 PM 66.0 °F 62.1 °F 87% 29.86 in 10.0 mi WNW 20.7 mph - N/A   Overcast
4:39 PM 64.4 °F 62.6 °F 94% 29.87 in 5.0 mi NW 19.6 mph - N/A   Light Drizzle
4:54 PM 64.0 °F 60.1 °F 87% 29.86 in 10.0 mi NW 12.7 mph 26.5 mph 0.00 in   Overcast
5:34 PM 64.0 °F 57.9 °F 80% 29.89 in 10.0 mi NW 15.0 mph - N/A   Overcast
5:54 PM 64.0 °F 57.9 °F 80% 29.89 in 10.0 mi NNW 10.4 mph - N/A   Mostly Cloudy
6:54 PM 64.0 °F 57.9 °F 80% 29.90 in 10.0 mi NNW 9.2 mph - N/A   Partly Cloudy
7:54 PM 61.0 °F 57.9 °F 90% 29.93 in 10.0 mi North 5.8 mph - N/A   Partly Cloudy
8:54 PM 60.1 °F 57.0 °F 90% 29.96 in 10.0 mi North 4.6 mph - N/A   Clear
9:54 PM 59.0 °F 55.9 °F 90% 29.97 in 10.0 mi North 4.6 mph - N/A   Clear
10:54 PM 57.9 °F 55.9 °F 93% 29.99 in 10.0 mi Calm Calm - N/A   Clear
11:54 PM 57.0 °F 55.0 °F 93% 29.99 in 10.0 mi NNW 4.6 mph - N/A   Clear